User: anonymous   Login
Location: Tamazert
(32.6352°N, 5.2072°W)
Time: 13:11:20
(UTC+00:00)
Language:

SR - Orbit

View from above orbital plane
View from above orbital plane
View from above satellite
View from above satellite

Ground track
Ground track

The orbit data is extracted from the following two-line orbital elements,

1 00046U 60007B   22277.78649925  .00001068  00000-0  22816-3 0  9990
2 00046  66.6891 297.9698 0214640 226.6955 131.6083 14.49825286260751
Epoch (UTC): 04 October 2022 18:52:33
Eccentricity: 0.0214640
inclination: 66.6891°
perigee height: 574 km
apogee height: 879 km
right ascension of ascending node: 297.9698°
argument of perigee: 226.6955°
revolutions per day: 14.49825286
mean anomaly at epoch: 131.6083°
orbit number at epoch: 26075

The dashed part of the orbit path shows where the satellite is in the earth's shadow,  

DLR